Location: Amsterdam
(30.7274°N, 84.4357°W)
Time: 00:11:42
(UTC+00:00)

Tiros 1 - Pass Details

Date: 20 February 2026
Orbit: 618 x 649 km, 48.4° (Epoch: 9 March)

Event Time Altitude Azimuth Distance (km) Brightness Sun altitude
Rises 10:29:03 0° 176° (S) 2,924 10.6 -23.2°
Reaches altitude 10° 10:33:54 10° 131° (SE) 2,011 10.3 -22.1°
Maximum altitude 10:34:18 10° 126° (SE) 2,004 10.4 -22.0°
Drops below altitude 10° 10:34:42 10° 121° (ESE) 2,010 10.5 -21.9°
Sets 10:39:31 0° 77° (ENE) 2,912 11.9 -20.9°
